Location: Harburg
(48.7667°N, 10.6667°E)
Time: 06:24:24
(UTC+00:00)

Resurs 01 Rocket - Pass Details

Date: 18 September 2020
Orbit: 633 x 645 km, 98.0° (Epoch: 22 October)

Event Time Altitude Azimuth Distance (km) Brightness Sun altitude
Exits shadow 20:56:51 20° 268° (W) 1,474 3.8 -32.0°
Maximum altitude 20:56:52 20° 268° (W) 1,474 3.8 -32.0°
Drops below altitude 10° 21:00:12 10° 317° (NW) 2,052 5.1 -32.4°
Sets 21:02:56 0° 334° (NNW) 2,966 6.1 -32.7°
